[[{"header":{"parameterUnit":"m.s-1","parameterCategory":1,"la1":30.2991,"la2":30.254,"lo1":-89.0895,"lo2":-89.0444,"dy":0.0017,"dx":0.0017,"nx":28,"ny":28,"refTime":"2023-10-29T21:00:00:Z","depth":0,"parameterNumber":2,"parameterNumberName":"U-component_of_WINDS"},"data":[0,0,0,0,0,0,0,0,0,0,0,0,0,0,0,0,0,0,0,0,0,0,0,0,0,0,0,0,0,0,0,0,0,0,0,0,0,0,0,0,0,0,0,0,0,0,0,0,0,0,0,0,0,0,0,0,0,0,0.3473,0.3472,0,0.3451,0.3451,0.3451,0.3447,0.3448,0.3448,0.3448,0.3425,0.3424,0.3424,0,0,0,0,0,0,0,0,0,0,0,0,0,0.351,0.3509,0.3473,0.3472,0.3472,0.3451,0.3451,0.3451,0.3447,0.3448,0.3448,0.3448,0.3425,0.3424,0.3424,0,0,0,0,0,0,0,0,0,0,0,0,0,0.3492,0.3509,0.3473,0.3468,0.3467,0.3451,0.3451,0.3451,0.3447,0.3448,0.3448,0.3448,0.3426,0.3425,0.3423,0.3411,0,0,0.342,0.3419,0,0,0,0,0,0,0,0,0.3493,0.349,0.3469,0.3468,0.3467,0.3452,0.3456,0.3437,0.3447,0.3455,0.3448,0.3448,0.3434,0.3432,0.3427,0.341,0.3409,0.342,0.3419,0.3419,0.3418,0,0,0,0,0,0,0,0.3494,0.3491,0.3464,0.3468,0.3468,0.3467,0.3464,0.3452,0.3443,0.3454,0.3454,0.3451,0.3434,0.3429,0.3427,0.3408,0.342,0.3419,0.3418,0.3418,0.338,0.338,0,0,0,0,0,0,0.3496,0.3492,0.3465,0.3463,0.3481,0.3466,0.3463,0.3457,0.3443,0.3441,0.3451,0.3451,0.343,0.3428,0.3426,0.3411,0.3419,0.3417,0.3417,0.338,0.338,0.338,0,0,0,0,0,0,0.3497,0.3494,0.3466,0.3478,0.3474,0.3465,0.3458,0.3456,0.3451,0.3441,0.3439,0.3448,0.3431,0.3428,0.3415,0.341,0.3417,0.3416,0.3381,0.338,0.338,0.338,0,0,0,0,0,0,0.3498,0.3494,0.3489,0.3478,0.3474,0.3455,0.3457,0.3456,0.3449,0.3449,0.3437,0.3436,0.3431,0.3417,0.3414,0.3408,0.3415,0.3381,0.3381,0.338,0.338,0.3379,0.3379,0,0,0,0,0,0.3499,0.3489,0.3489,0.3485,0.3467,0.3454,0.3452,0.3447,0.3449,0.3444,0.3438,0.3436,0.3411,0.3415,0.3412,0.3406,0.3381,0.3381,0.338,0.338,0.3379,0.3379,0,0,0,0,0,0,0.3499,0.3488,0.3487,0.3473,0.3465,0.3454,0.3447,0.3446,0.3436,0.3437,0.343,0.3428,0.3415,0.341,0.3414,0.3394,0.3396,0.3395,0.3398,0.3397,0.3396,0.3398,0.3414,0,0,0,0,0,0.3498,0.3489,0.3479,0.3467,0.3464,0.3456,0.345,0.3447,0.3438,0.3435,0.3427,0.3419,0.3409,0.3403,0.3393,0.338,0.3377,0.3374,0.3374,0.3373,0.3372,0.3365,0.3364,0.3378,0.3378,0.3378,0,0,0.3494,0.3487,0.3481,0.3467,0.3461,0.3451,0.3453,0.3443,0.3436,0.3433,0.3421,0.3415,0.3405,0.3392,0.3386,0.3387,0.3368,0.3372,0.3372,0.3371,0.3364,0.3363,0.3362,0.3377,0.3377,0.3377,0,0,0.3483,0.3476,0.3466,0.346,0.345,0.3446,0.3444,0.3433,0.343,0.3417,0.3415,0.3407,0.339,0.3384,0.3378,0.3366,0.3365,0.3364,0.3359,0.3353,0.3352,0.3351,0.3347,0.3346,0.3362,0.3362,0.3362,0,0.3479,0.3465,0.3461,0.3452,0.3446,0.3444,0.3434,0.3428,0.3416,0.3412,0.3413,0.3393,0.3386,0.3372,0.3369,0.3365,0.3362,0.3364,0.3353,0.3351,0.335,0.3347,0.3345,0.3362,0.3362,0.3362,0.3362,0,0.3462,0.3453,0.3446,0.3435,0.3428,0.3419,0.3413,0.3407,0.3405,0.3401,0.3389,0.3381,0.337,0.3367,0.3364,0.3352,0.3353,0.3354,0.3356,0.3349,0.3346,0.3344,0.3362,0.3362,0.3362,0.3362,0,0,0.3448,0.3437,0.3434,0.343,0.342,0.3412,0.3403,0.3393,0.3389,0.3381,0.3373,0.336,0.336,0.3354,0.3351,0.3345,0.3337,0.3347,0.3346,0.3345,0.3325,0.3324,0.3323,0.3337,0.3336,0.3336,0.3326,0,0.3436,0.3419,0.3416,0.3402,0.3394,0.3393,0.3385,0.3378,0.3374,0.3366,0.3362,0.3353,0.3354,0.335,0.3345,0.334,0.3333,0.334,0.3329,0.3329,0.3332,0.3321,0.332,0.331,0.3324,0.3324,0.3324,0,0.3419,0.3411,0.3396,0.3389,0.3385,0.3378,0.337,0.3363,0.3355,0.3353,0.3347,0.3345,0.3335,0.3339,0.3326,0.3331,0.3327,0.3324,0.3323,0.3322,0.3326,0.3319,0.3307,0.3305,0.3321,0.3322,0.3322,0,0.341,0.3397,0.3387,0.3383,0.3374,0.3369,0.3365,0.3358,0.3353,0.3345,0.3342,0.3333,0.3329,0.3322,0.3318,0.3321,0.3306,0.3309,0.3304,0.3304,0.33,0.33,0.3287,0.3298,0.3298,0.3298,0.3298,0,0.3397,0.3388,0.3383,0.3376,0.3367,0.3364,0.3354,0.335,0.3344,0.3337,0.3336,0.3329,0.3324,0.3317,0.3314,0.3304,0.3302,0.33,0.3299,0.33,0.33,0.3296,0.3297,0.3297,0.3298,0.3298,0.3298,0,0.3385,0.3382,0.3371,0.3364,0.3362,0.3355,0.3349,0.3343,0.3339,0.3331,0.3328,0.3323,0.3315,0.331,0.33,0.3298,0.3287,0.3287,0.3289,0.3289,0.3284,0.3285,0.3268,0.3266,0.3278,0.3278,0.3278,0,0.3376,0.337,0.3363,0.3358,0.3354,0.3347,0.3342,0.3339,0.3334,0.3326,0.3321,0.3313,0.3306,0.3293,0.3288,0.3281,0.328,0.3275,0.3279,0.328,0.328,0.328,0.328,0.3274,0.3274,0.3274,0.3273,0,0.3361,0.336,0.3353,0.3347,0.3341,0.3335,0.3329,0.3326,0.3322,0.3317,0.3309,0.3304,0.3294,0.3286,0.3278,0.3274,0.3273,0.3273,0.3271,0.3271,0.3273,0.3272,0.3287,0.3273,0.3273,0.3273,0.3273,0.3273,0.3351,0.3345,0.334,0.3333,0.3328,0.3323,0.3318,0.3314,0.3308,0.33,0.3299,0.329,0.3284,0.3274,0.327,0.3263,0.3264,0.3262,0.3261,0.3261,0.3261,0.3275,0.3262,0.3262,0.3262,0.3262,0.3262,0,0.3336,0.3333,0.3326,0.3319,0.3313,0.3314,0.3309,0.3304,0.3297,0.3292,0.3285,0.3277,0.327,0.3265,0.3258,0.3253,0.3253,0.3252,0.3252,0.3251,0.326,0.3262,0.3252,0.3252,0.3252,0.3252,0.3252,0.3252,0.3327,0.3318,0.3317,0.3306,0.3303,0.3295,0.3292,0.3287,0.3283,0.3274,0.3268,0.3266,0.3261,0.3253,0.3247,0.3246,0.3243,0.3242,0.3241,0.3249,0.325,0.3251,0.3253,0.3241,0.3241,0.3232,0.3232,0.3232]},{"header":{"parameterUnit":"m.s-1","parameterCategory":1,"la1":30.2991,"la2":30.254,"lo1":-89.0895,"lo2":-89.0444,"dy":0.0017,"dx":0.0017,"nx":28,"ny":28,"refTime":"2023-10-29T21:00:00:Z","depth":0,"parameterNumber":3,"parameterNumberName":"V-component_of_WINDS"},"data":[0,0,0,0,0,0,0,0,0,0,0,0,0,0,0,0,0,0,0,0,0,0,0,0,0,0,0,0,0,0,0,0,0,0,0,0,0,0,0,0,0,0,0,0,0,0,0,0,0,0,0,0,0,0,0,0,0,0,-7.991,-7.9911,0,-8.0016,-8.0017,-8.0018,-7.9956,-7.9954,-7.9951,-7.9948,-8.0048,-8.0053,-8.0059,0,0,0,0,0,0,0,0,0,0,0,0,0,-7.9647,-7.9652,-7.991,-7.9911,-7.9913,-8.0016,-8.0017,-8.0018,-7.9957,-7.9953,-7.995,-7.9946,-8.0046,-8.0053,-8.0059,0,0,0,0,0,0,0,0,0,0,0,0,0,-7.9758,-7.9654,-7.991,-7.9895,-7.9894,-8.0015,-8.0017,-8.0019,-7.9958,-7.9953,-7.9949,-7.9945,-8.0044,-8.0052,-8.006,-8.0199,0,0,-8.0085,-8.0088,0,0,0,0,0,0,0,0,-7.9752,-7.9768,-7.9896,-7.9896,-7.9896,-7.9969,-7.9961,-8.0079,-7.9959,-7.9933,-7.9948,-7.9943,-8.0025,-8.0034,-8.0063,-8.0204,-8.0208,-8.0086,-8.0091,-8.0094,-8.0096,0,0,0,0,0,0,0,-7.9744,-7.9763,-7.9951,-7.9897,-7.9898,-7.988,-7.9891,-7.9983,-8.0002,-7.9935,-7.9931,-7.9945,-8.0024,-8.0056,-8.0065,-8.021,-8.0085,-8.0093,-8.0098,-8.0101,-8.0469,-8.0474,0,0,0,0,0,0,-7.9739,-7.9757,-7.9948,-7.9955,-7.9812,-7.9888,-7.99,-7.995,-8.0001,-8.0005,-7.9949,-7.9942,-8.0044,-8.0056,-8.0069,-8.0235,-8.0094,-8.0102,-8.0106,-8.0464,-8.047,-8.0475,0,0,0,0,0,0,-7.9733,-7.9756,-7.9944,-7.9855,-7.9877,-7.9898,-7.9953,-7.9954,-7.9986,-8.0012,-8.0014,-7.9978,-8.0041,-8.0057,-8.0168,-8.0237,-8.0105,-8.0113,-8.0458,-8.0466,-8.0473,-8.0568,0,0,0,0,0,0,-7.9726,-7.9755,-7.981,-7.9857,-7.9882,-8.0044,-7.9958,-7.9959,-8.0001,-7.9993,-8.004,-8.0043,-8.0039,-8.0156,-8.0176,-8.0246,-8.0119,-8.0452,-8.0462,-8.0471,-8.0559,-8.0578,-8.0594,0,0,0,0,0,-7.9717,-7.9831,-7.9813,-7.9836,-7.9952,-8.0048,-8.0062,-8.0057,-8.0007,-8.0061,-8.0078,-8.0042,-8.0227,-8.0168,-8.019,-8.0263,-8.0448,-8.0459,-8.047,-8.0551,-8.0574,-8.0594,0,0,0,0,0,0,-7.9788,-7.9836,-7.9817,-7.995,-7.9996,-8.0038,-8.0106,-8.0082,-8.0141,-8.013,-8.0119,-8.013,-8.0245,-8.0265,-8.0199,-8.0401,-8.0329,-8.0345,-8.0383,-8.0406,-8.0423,-8.0415,-8.0126,0,0,0,0,0,-7.982,-7.9897,-7.9934,-8.0047,-8.0072,-8.0085,-8.0127,-8.0119,-8.0165,-8.0183,-8.0207,-8.0251,-8.0318,-8.0363,-8.0427,-8.0562,-8.057,-8.0623,-8.0641,-8.0655,-8.0669,-8.0741,-8.0765,-8.0512,-8.0512,-8.0511,0,0,-7.9885,-7.9921,-7.997,-8.0063,-8.0097,-8.0174,-8.0101,-8.0186,-8.0243,-8.0195,-8.0301,-8.0321,-8.0368,-8.0492,-8.0547,-8.0512,-8.0741,-8.0669,-8.0681,-8.0686,-8.0755,-8.0779,-8.08,-8.0519,-8.0518,-8.0517,0,0,-8.0044,-8.008,-8.0178,-8.0215,-8.0269,-8.0278,-8.0302,-8.0348,-8.0359,-8.0467,-8.0433,-8.0498,-8.0616,-8.0651,-8.0684,-8.0858,-8.0826,-8.0879,-8.097,-8.1041,-8.106,-8.1078,-8.1139,-8.1161,-8.0892,-8.0892,-8.0893,0,-8.0117,-8.0235,-8.0231,-8.032,-8.036,-8.0324,-8.0422,-8.0457,-8.0528,-8.0556,-8.0517,-8.0664,-8.0693,-8.0824,-8.0867,-8.0895,-8.092,-8.0873,-8.1059,-8.1076,-8.1092,-8.115,-8.1173,-8.0898,-8.0898,-8.0897,-8.0896,0,-8.0322,-8.0405,-8.0477,-8.0551,-8.06,-8.0693,-8.07,-8.075,-8.0738,-8.075,-8.0859,-8.0894,-8.0964,-8.0995,-8.0983,-8.1124,-8.11,-8.106,-8.0988,-8.1123,-8.1176,-8.1199,-8.0907,-8.0905,-8.0903,-8.0901,0,0,-8.0527,-8.0599,-8.0625,-8.0658,-8.0716,-8.0778,-8.0868,-8.094,-8.0983,-8.1033,-8.1107,-8.1208,-8.1171,-8.1209,-8.1201,-8.1263,-8.1397,-8.1215,-8.1216,-8.1247,-8.1554,-8.1583,-8.1609,-8.1378,-8.1382,-8.1385,-8.1549,0,-8.0689,-8.0851,-8.085,-8.0998,-8.1073,-8.1039,-8.1118,-8.116,-8.1174,-8.1238,-8.1251,-8.1323,-8.127,-8.1292,-8.1352,-8.1368,-8.1458,-8.1357,-8.1444,-8.1447,-8.1432,-8.1637,-8.1669,-8.1822,-8.157,-8.1574,-8.1577,0,-8.0899,-8.096,-8.1116,-8.1164,-8.1195,-8.1266,-8.1332,-8.1394,-8.1441,-8.1446,-8.149,-8.1472,-8.1561,-8.1488,-8.161,-8.1541,-8.1576,-8.1589,-8.1595,-8.1602,-8.1519,-8.1649,-8.1871,-8.1894,-8.161,-8.1607,-8.1605,0,-8.1032,-8.1153,-8.1262,-8.1291,-8.1349,-8.14,-8.1426,-8.1469,-8.1512,-8.1568,-8.1596,-8.1661,-8.1696,-8.1746,-8.1745,-8.1692,-8.1868,-8.1795,-8.1873,-8.1873,-8.1911,-8.1908,-8.2141,-8.1936,-8.1936,-8.1935,-8.1935,0,-8.1212,-8.1309,-8.1323,-8.139,-8.1497,-8.1494,-8.1599,-8.162,-8.1658,-8.1727,-8.1701,-8.1765,-8.1762,-8.1826,-8.1826,-8.1926,-8.1942,-8.1948,-8.1946,-8.195,-8.1949,-8.1972,-8.1961,-8.1941,-8.194,-8.1939,-8.1938,0,-8.1378,-8.1392,-8.1509,-8.1555,-8.1569,-8.1646,-8.1684,-8.1746,-8.1759,-8.1846,-8.1866,-8.1884,-8.1958,-8.1964,-8.2049,-8.2049,-8.217,-8.2158,-8.2156,-8.2153,-8.2231,-8.2223,-8.2485,-8.2519,-8.2293,-8.2296,-8.2297,0,-8.1492,-8.1566,-8.1621,-8.1667,-8.1697,-8.1771,-8.1815,-8.1815,-8.1862,-8.1922,-8.1977,-8.205,-8.2108,-8.2228,-8.2247,-8.2312,-8.23,-8.2388,-8.2309,-8.231,-8.23,-8.2295,-8.2302,-8.2402,-8.2405,-8.2407,-8.2408,0,-8.1692,-8.1695,-8.1762,-8.1832,-8.1887,-8.1941,-8.1992,-8.203,-8.2035,-8.2089,-8.2167,-8.2212,-8.2301,-8.2373,-8.2437,-8.246,-8.2435,-8.2433,-8.2455,-8.2458,-8.2454,-8.2456,-8.2196,-8.2427,-8.2425,-8.2424,-8.2423,-8.2422,-8.1834,-8.1899,-8.1948,-8.2024,-8.2062,-8.2111,-8.2172,-8.2193,-8.2259,-8.2333,-8.2328,-8.2414,-8.2458,-8.2541,-8.257,-8.2635,-8.2605,-8.2636,-8.2644,-8.2652,-8.266,-8.2445,-8.2647,-8.2646,-8.2646,-8.2645,-8.2645,0,-8.2032,-8.2063,-8.2133,-8.2206,-8.2265,-8.2239,-8.2294,-8.2344,-8.2421,-8.2466,-8.2524,-8.2613,-8.2683,-8.2708,-8.2776,-8.2823,-8.2813,-8.2841,-8.2836,-8.2842,-8.2683,-8.2658,-8.2848,-8.2848,-8.2848,-8.2848,-8.2847,-8.2847,-8.2142,-8.225,-8.2259,-8.2385,-8.2414,-8.25,-8.2534,-8.2577,-8.2613,-8.2714,-8.2774,-8.2791,-8.2827,-8.2897,-8.2959,-8.2965,-8.299,-8.3023,-8.3023,-8.2874,-8.2853,-8.2834,-8.281,-8.3028,-8.3029,-8.3176,-8.3178,-8.3179]}]]